Location: Newark
(47.4333°N, 19.2500°E)
Time: 19:59:29
(UTC+00:00)

Envisat - Visible Passes

Search period start: 05 March 2021 00:00
Search period end: 15 March 2021 00:00
Orbit: 764 x 766 km, 98.1° (Epoch: 05 March)

Date Brightness Start Highest point End Pass type
(mag) Time Alt. Az. Time Alt. Az. Time Alt. Az.
05 Mar 4.8 03:46:03 10° NNE 03:50:39 34° E 03:55:14 10° SSE visible
06 Mar 5.9 03:10:16 10° NE 03:13:28 17° E 03:16:39 10° SE visible
07 Mar 3.8 04:11:10 10° NNE 04:16:11 56° E 04:21:09 10° S visible
07 Mar 6.8 17:12:09 10° WSW 17:13:41 11° W 17:15:14 10° WNW visible
08 Mar 5.2 03:34:49 10° NE 03:39:08 27° E 03:43:25 10° SSE visible
09 Mar 6.1 02:59:30 10° ENE 03:01:53 13° E 03:04:16 10° ESE visible
09 Mar 3.0 04:36:29 10° NNE 04:41:37 87° WNW 04:46:41 10° SSW visible
10 Mar 4.3 03:59:49 10° NNE 04:04:42 45° E 04:09:33 10° S visible
11 Mar 5.6 03:23:40 10° NE 03:27:37 22° E 03:31:31 10° SE visible
12 Mar 6.4 02:49:40 10° ENE 02:50:17 10° E 02:50:54 10° E visible
12 Mar 3.3 04:25:04 10° NNE 04:30:10 76° ESE 04:35:15 10° S visible
13 Mar 4.7 03:48:31 10° NNE 03:53:13 36° E 03:57:52 10° SSE visible
14 Mar 5.9 03:12:37 10° NE 03:16:03 18° E 03:19:27 10° SE visible
